Weather History for KNBC - November, 2013

Change the Weather History Date:

Saturday, November 2, 2013

  Actual Average Record
Temperature  
Mean Temperature 66 °F -  
Max Temperature 73 °F 75 °F - (-1)
Min Temperature 59 °F 56 °F - (-1)
Cooling Degree Days 1    
Growing Degree Days 16 (Base 50)    
Moisture  
Dew Point 58 °F    
Average Humidity 78    
Maximum Humidity 94    
Minimum Humidity 41    
Precipitation  
Precipitation 0.59 in - - ()
Sea Level Pressure  
Sea Level Pressure 29.83 in    
Wind  
Wind Speed 8 mph (WNW)    
Max Wind Speed 13 mph    
Max Gust Speed 18 mph    
Visibility 8 miles    
Events Rain    
Averages and records for this station are not official NWS values.
T = Trace of Precipitation, MM = Missing Value Source: NWS Daily Summary

Daily Weather History Graph

Daily Weather History Graph

Search for Another Location

Airport or City:

Trip Planner

Search our weather history database for the weather conditions in past years. The results will help you decide how hot, cold, wet, or windy it might be!

Date:

Astronomy

Nov. 02, 2013 Rise Set
Actual Time 7:41 AM EDT 6:31 PM EDT
Civil Twilight 7:15 AM EDT 6:56 PM EDT
Nautical Twilight 6:46 AM EDT 7:25 PM EDT
Astronomical Twilight 6:17 AM EDT 7:54 PM EDT
Moon 6:39 AM EDT (11/2) 6:00 PM EDT (11/2)
Length of Visible Light 11h 40m
Length of Day
10h 50m
Waning Crescent, 1% of the Moon is Illuminated
Nov 2
Waning Crescent
Nov 3
New
Nov 10
First Quarter
Nov 17
Full
Nov 25
Last Quarter

Hourly Weather History & Observations

Time (EDT) Temp. Dew Point Humidity Pressure Visibility Wind Dir Wind Speed Gust Speed Precip Events Conditions
12:05 AM 69.1 °F 66.9 °F 93% 29.79 in 4.0 mi WNW 8.1 mph - 0.02 in Rain Light Rain
12:20 AM 68.0 °F 64.9 °F 90% 29.80 in 5.0 mi West 10.4 mph - 0.07 in Rain Rain
12:31 AM 70.0 °F 64.9 °F 84% 29.80 in 2.5 mi SW 9.2 mph - 0.14 in Rain Heavy Rain
12:56 AM 66.9 °F 64.9 °F 93% 29.79 in 2.5 mi West 12.7 mph - 0.28 in Rain Rain
1:18 AM 66.9 °F 64.0 °F 90% 29.78 in 4.0 mi West 9.2 mph - 0.14 in Rain Rain
1:51 AM 66.2 °F 64.4 °F 94% 29.79 in 1.8 mi WSW 9.2 mph - 0.27 in Rain Heavy Rain
1:56 AM 66.0 °F 64.0 °F 93% 29.78 in 1.8 mi WSW 6.9 mph - 0.29 in Rain Rain
2:00 AM 66.0 °F 64.0 °F 93% 29.79 in 3.0 mi WSW 8.1 mph - 0.00 in Rain Rain
2:56 AM 66.0 °F 64.0 °F 93% 29.78 in 10.0 mi West 8.1 mph - 0.02 in   Overcast
3:56 AM 66.9 °F 64.9 °F 93% 29.78 in 10.0 mi WNW 4.6 mph - N/A   Mostly Cloudy
4:08 AM 66.9 °F 64.9 °F 93% 29.78 in 10.0 mi WNW 8.1 mph - N/A   Mostly Cloudy
4:19 AM 66.9 °F 64.0 °F 90% 29.78 in 10.0 mi NW 8.1 mph - N/A   Mostly Cloudy
4:29 AM 66.0 °F 64.0 °F 93% 29.78 in 10.0 mi NW 6.9 mph - N/A   Scattered Clouds
4:56 AM 66.0 °F 63.0 °F 90% 29.78 in 10.0 mi NW 8.1 mph - N/A   Scattered Clouds
5:56 AM 64.9 °F 63.0 °F 93% 29.80 in 10.0 mi West 3.5 mph - N/A   Scattered Clouds
6:56 AM 64.9 °F 62.1 °F 90% 29.82 in 10.0 mi West 6.9 mph - N/A   Clear
7:56 AM 64.0 °F 61.0 °F 90% 29.83 in 10.0 mi WNW 5.8 mph - N/A   Clear
8:56 AM 64.0 °F 60.1 °F 87% 29.86 in 10.0 mi WNW 8.1 mph - N/A   Clear
9:56 AM 64.9 °F 57.9 °F 78% 29.86 in 10.0 mi NW 8.1 mph - N/A   Clear
10:56 AM 66.0 °F 57.0 °F 73% 29.87 in 10.0 mi NW 6.9 mph - N/A   Clear
11:56 AM 66.0 °F 55.0 °F 68% 29.87 in 10.0 mi NNW 9.2 mph - N/A   Clear
12:56 PM 68.0 °F 55.0 °F 63% 29.87 in 10.0 mi NW 5.8 mph - N/A   Clear
1:56 PM 68.0 °F 53.1 °F 59% 29.83 in 10.0 mi NW 8.1 mph - N/A   Clear
2:56 PM 71.1 °F 52.0 °F 51% 29.82 in 10.0 mi NW 12.7 mph - N/A   Clear
3:56 PM 72.0 °F 46.9 °F 41% 29.82 in 10.0 mi NW 11.5 mph 18.4 mph N/A   Clear
4:56 PM 73.0 °F 48.9 °F 42% 29.83 in 10.0 mi NW 8.1 mph - N/A   Clear
5:56 PM 70.0 °F 51.1 °F 51% 29.84 in 10.0 mi NW 4.6 mph - N/A   Clear
6:56 PM 64.9 °F 53.1 °F 65% 29.86 in 10.0 mi WNW 4.6 mph - N/A   Clear
7:56 PM 61.0 °F 52.0 °F 72% 29.89 in 10.0 mi West 5.8 mph - N/A   Clear
8:56 PM 63.0 °F 50.0 °F 63% 29.92 in 10.0 mi WNW 8.1 mph - N/A   Clear
9:56 PM 62.1 °F 48.0 °F 60% 29.95 in 10.0 mi NW 6.9 mph - N/A   Clear
10:56 PM 59.0 °F 50.0 °F 72% 29.97 in 10.0 mi WNW 5.8 mph - N/A   Clear
11:56 PM 60.1 °F 46.9 °F 62% 29.98 in 10.0 mi NW 8.1 mph - N/A   Clear